Tracking 19827 objects as of 21-Aug-2019
HD Live streaming from Space Station
objects crossing your sky now

GALS 2

Track GALS 2 now!
GALS 2 is classified as:


NORAD ID: 23717
Int'l Code: 1995-063A
Perigee: 35,869.1 km
Apogee: 35,939.1 km
Inclination: 13.6 °
Period: 1,441.7 minutes
Semi major axis: 42275 km
RCS: 8.9125 m2 (large)
Launch date: November 17, 1995
Source: Commonwealth of Independent States (former USSR) (CIS)
Launch site: TYURATAM MISSILE AND SPACE COMPLEX (TTMTR)
aabbcc
Your satellite tracking list
Your tracking list is empty




NASA's NSSDC Master Catalog

Two Line Element Set (TLE):
1 23717U 95063A   19232.53071683 +.00000058 +00000-0 +00000-0 0  9996
2 23717 013.5740 021.8435 0008282 288.2892 082.5358 00.99879312086737
Source of the keplerian elements: AFSPC